Year,Month,Day,Hour,Minute,Value (Times are PST for temperature in C)
2008,06,25,00,00,10.90
2008,06,25,00,01,11.00
2008,06,25,00,02,11.00
2008,06,25,00,03,11.10
2008,06,25,00,04,11.10
2008,06,25,00,05,11.10
2008,06,25,00,06,11.20
2008,06,25,00,07,11.20
2008,06,25,00,08,11.20
2008,06,25,00,09,11.20
2008,06,25,00,10,11.30
2008,06,25,00,11,11.40
2008,06,25,00,12,11.40
2008,06,25,00,13,11.40
2008,06,25,00,14,11.40
2008,06,25,00,15,11.50
2008,06,25,00,16,11.50
2008,06,25,00,17,11.50
2008,06,25,00,18,11.50
2008,06,25,00,19,11.60
2008,06,25,00,20,11.60
2008,06,25,00,21,11.60
2008,06,25,00,22,11.60
2008,06,25,00,23,11.70
2008,06,25,00,24,11.70
2008,06,25,00,25,11.70
2008,06,25,00,26,11.70
2008,06,25,00,27,11.70
2008,06,25,00,28,11.70
2008,06,25,00,29,11.70
2008,06,25,00,30,11.70
2008,06,25,00,31,11.70
2008,06,25,00,32,11.70
2008,06,25,00,33,11.70
2008,06,25,00,34,11.70
2008,06,25,00,35,11.70
2008,06,25,00,36,11.60
2008,06,25,00,37,11.60
2008,06,25,00,38,11.60
2008,06,25,00,39,11.50
2008,06,25,00,40,11.50
2008,06,25,00,41,11.50
2008,06,25,00,42,11.50
2008,06,25,00,43,11.50
2008,06,25,00,44,11.50
2008,06,25,00,45,11.50
2008,06,25,00,46,11.40
2008,06,25,00,47,11.40
2008,06,25,00,48,11.40
2008,06,25,00,49,11.40
2008,06,25,00,50,11.40
2008,06,25,00,51,11.40
2008,06,25,00,52,11.30
2008,06,25,00,53,11.30
2008,06,25,00,54,11.30
2008,06,25,00,55,11.20
2008,06,25,00,56,11.20
2008,06,25,00,57,11.20
2008,06,25,00,58,11.20
2008,06,25,00,59,11.20
2008,06,25,01,00,11.20
2008,06,25,01,01,11.20
2008,06,25,01,02,11.20
2008,06,25,01,03,11.10
2008,06,25,01,04,11.20
2008,06,25,01,05,11.20
2008,06,25,01,06,11.20
2008,06,25,01,07,11.20
2008,06,25,01,08,11.20
2008,06,25,01,09,11.10
2008,06,25,01,10,11.10
2008,06,25,01,11,11.10
2008,06,25,01,12,11.10
2008,06,25,01,13,11.10
2008,06,25,01,14,11.10
2008,06,25,01,15,11.10
2008,06,25,10,22,17.40
2008,06,25,10,23,17.40
2008,06,25,10,24,17.40
2008,06,25,10,25,17.50
2008,06,25,10,26,17.60
2008,06,25,10,27,17.70
2008,06,25,10,28,17.70
2008,06,25,10,29,17.70
2008,06,25,10,30,17.60
2008,06,25,10,31,17.50
2008,06,25,10,32,17.30
2008,06,25,10,33,17.20
2008,06,25,10,34,17.10
2008,06,25,10,35,17.10
2008,06,25,10,36,17.20
2008,06,25,10,37,17.30
2008,06,25,10,38,17.30
2008,06,25,10,39,17.40
2008,06,25,10,40,17.50
2008,06,25,10,41,17.60
2008,06,25,10,42,17.60
2008,06,25,10,43,17.50
2008,06,25,10,44,17.60
2008,06,25,10,45,17.60
2008,06,25,10,46,17.70
2008,06,25,10,47,17.70
2008,06,25,10,48,17.80
2008,06,25,10,49,17.90
2008,06,25,10,50,17.90
2008,06,25,10,51,17.90
2008,06,25,10,52,17.90
2008,06,25,10,53,18.00
2008,06,25,10,54,18.00
2008,06,25,10,55,18.10
2008,06,25,10,56,18.20
2008,06,25,10,57,18.20
2008,06,25,10,58,18.20
2008,06,25,10,59,18.30
2008,06,25,11,00,18.30
2008,06,25,11,01,18.30
2008,06,25,11,02,18.30
2008,06,25,11,03,18.20
2008,06,25,11,04,18.20
2008,06,25,11,05,18.10
2008,06,25,11,06,18.10
2008,06,25,11,07,18.20
2008,06,25,11,08,18.30
2008,06,25,11,09,18.30
2008,06,25,11,10,18.20
2008,06,25,11,11,18.30
2008,06,25,11,12,18.40
2008,06,25,11,13,18.40
2008,06,25,11,14,18.30
2008,06,25,11,15,18.40
2008,06,25,11,16,18.30
2008,06,25,11,17,18.20
2008,06,25,11,18,18.20
2008,06,25,11,19,18.20
2008,06,25,11,20,18.30
2008,06,25,11,21,18.40
2008,06,25,11,22,18.40
2008,06,25,11,23,18.50
2008,06,25,11,24,18.50
2008,06,25,11,25,18.40
2008,06,25,11,26,18.50
2008,06,25,11,27,18.50
2008,06,25,11,28,18.40
2008,06,25,11,29,18.40
2008,06,25,11,30,18.50
2008,06,25,11,31,18.60
2008,06,25,11,32,18.70
2008,06,25,11,33,18.70
2008,06,25,11,34,18.80
2008,06,25,11,35,18.80
2008,06,25,11,36,18.90
2008,06,25,11,37,18.90
2008,06,25,11,38,18.80
2008,06,25,11,39,18.70
2008,06,25,11,40,18.60
2008,06,25,11,41,18.60
2008,06,25,11,42,18.70
2008,06,25,11,43,18.80
2008,06,25,11,44,18.80
2008,06,25,11,45,18.70
2008,06,25,11,46,18.50
2008,06,25,11,47,18.40
2008,06,25,11,48,18.40
2008,06,25,11,49,18.30
2008,06,25,11,50,18.30
2008,06,25,11,51,18.30
2008,06,25,11,52,18.20
2008,06,25,11,53,18.20
2008,06,25,11,54,18.20
2008,06,25,11,55,18.20
2008,06,25,11,56,18.30
2008,06,25,11,57,18.30
2008,06,25,11,58,18.30
2008,06,25,11,59,18.20
2008,06,25,12,00,18.20
2008,06,25,12,01,18.20
2008,06,25,12,02,18.10
2008,06,25,12,03,18.10
2008,06,25,12,04,18.10
2008,06,25,12,05,18.10
2008,06,25,12,06,18.00
2008,06,25,12,07,17.90
2008,06,25,12,08,17.70
2008,06,25,12,09,17.70
2008,06,25,12,10,17.70
2008,06,25,12,11,17.70
2008,06,25,12,12,17.80
2008,06,25,12,13,17.80
2008,06,25,12,14,17.80
2008,06,25,12,15,17.90
2008,06,25,12,16,17.90
2008,06,25,12,17,18.00
2008,06,25,12,18,18.10
2008,06,25,12,19,18.20
2008,06,25,12,20,18.20
2008,06,25,12,21,18.20
2008,06,25,12,22,18.20
2008,06,25,12,23,18.20
2008,06,25,12,24,18.20
2008,06,25,12,25,18.20
2008,06,25,12,26,18.20
2008,06,25,12,27,18.20
2008,06,25,12,28,18.20
2008,06,25,12,29,18.30
2008,06,25,12,30,18.40
2008,06,25,12,31,18.40
2008,06,25,12,32,18.40
2008,06,25,12,33,18.40
2008,06,25,12,34,18.40
2008,06,25,12,35,18.40
2008,06,25,12,36,18.40
2008,06,25,12,37,18.50
2008,06,25,12,38,18.60
2008,06,25,12,39,18.70
2008,06,25,12,40,18.80
2008,06,25,12,41,18.90
2008,06,25,12,42,19.00
2008,06,25,12,43,18.90
2008,06,25,12,44,18.90
2008,06,25,12,45,18.90
2008,06,25,12,46,19.00
2008,06,25,12,47,19.00
2008,06,25,12,48,19.10
2008,06,25,12,49,19.10
2008,06,25,12,50,19.30
2008,06,25,12,51,19.30
2008,06,25,12,52,19.30
2008,06,25,12,53,19.50
2008,06,25,12,54,19.60
2008,06,25,12,55,19.70
2008,06,25,12,56,19.70
2008,06,25,12,57,19.70
2008,06,25,12,58,19.80
2008,06,25,12,59,19.80
2008,06,25,13,00,19.80
2008,06,25,13,01,19.80
2008,06,25,13,02,19.70
2008,06,25,13,03,19.70
2008,06,25,13,04,19.60
2008,06,25,13,05,19.50
2008,06,25,13,06,19.50
2008,06,25,13,07,19.50
2008,06,25,13,08,19.60
2008,06,25,13,09,19.60
2008,06,25,13,10,19.60
2008,06,25,13,11,19.50
2008,06,25,13,12,19.50
2008,06,25,13,13,19.60
2008,06,25,13,14,19.60
2008,06,25,13,15,19.60
2008,06,25,13,16,19.70
2008,06,25,13,17,19.80
2008,06,25,13,18,19.70
2008,06,25,13,19,19.80
2008,06,25,13,20,19.60
2008,06,25,13,21,19.50
2008,06,25,13,22,19.40
2008,06,25,13,23,19.30
2008,06,25,13,24,19.30
2008,06,25,13,25,19.30
2008,06,25,13,26,19.30
2008,06,25,13,27,19.30
2008,06,25,13,28,19.30
2008,06,25,13,29,19.30
2008,06,25,13,30,19.40
2008,06,25,13,31,19.50
2008,06,25,13,32,19.60
2008,06,25,13,33,19.80
2008,06,25,13,34,19.90
2008,06,25,13,35,20.00
2008,06,25,13,36,19.90
2008,06,25,13,37,19.80
2008,06,25,13,38,19.70
2008,06,25,13,39,19.60
2008,06,25,13,40,19.40
2008,06,25,13,41,19.20
2008,06,25,13,42,19.10
2008,06,25,13,43,19.00
2008,06,25,13,44,19.00
2008,06,25,13,45,19.10
2008,06,25,13,46,19.10
2008,06,25,13,47,19.00
2008,06,25,13,48,19.00
2008,06,25,13,49,18.90
2008,06,25,13,50,18.90
2008,06,25,13,51,18.90
2008,06,25,13,52,18.90
2008,06,25,13,53,19.00
2008,06,25,13,54,19.10
2008,06,25,13,55,19.20
2008,06,25,13,56,19.20
2008,06,25,13,57,19.30
2008,06,25,13,58,19.40
2008,06,25,13,59,19.50
2008,06,25,14,00,19.50
2008,06,25,14,01,19.50
2008,06,25,14,02,19.50
2008,06,25,14,03,19.50
2008,06,25,14,04,19.50
2008,06,25,14,05,19.50
2008,06,25,14,06,19.50
2008,06,25,14,07,19.40
2008,06,25,14,08,19.40
2008,06,25,14,09,19.40
2008,06,25,14,10,19.50
2008,06,25,14,11,19.50
2008,06,25,14,12,19.50
2008,06,25,14,13,19.40
2008,06,25,14,14,19.40
2008,06,25,14,15,19.50
2008,06,25,14,16,19.50
2008,06,25,14,17,19.60
2008,06,25,14,18,19.60
2008,06,25,14,19,19.60
2008,06,25,14,20,19.60
2008,06,25,14,21,19.60
2008,06,25,14,22,19.60
2008,06,25,14,23,19.60
2008,06,25,14,24,19.50
2008,06,25,14,25,19.40
2008,06,25,14,26,19.30
2008,06,25,14,27,19.20
2008,06,25,14,28,19.10
2008,06,25,14,29,19.20
2008,06,25,14,30,19.20
2008,06,25,14,31,19.20
2008,06,25,14,32,19.30
2008,06,25,14,33,19.30
2008,06,25,14,34,19.40
2008,06,25,14,35,19.50
2008,06,25,14,36,19.60
2008,06,25,14,37,19.70
2008,06,25,14,38,19.70
2008,06,25,14,39,19.70
2008,06,25,14,40,19.70
2008,06,25,14,41,19.70
2008,06,25,14,42,19.80
2008,06,25,14,43,19.80
2008,06,25,14,44,19.80
2008,06,25,14,45,19.80
2008,06,25,14,46,19.90
2008,06,25,14,47,19.90
2008,06,25,14,48,19.90
2008,06,25,14,49,19.90
2008,06,25,14,50,19.90
2008,06,25,14,51,19.90
2008,06,25,14,52,19.90
2008,06,25,14,53,19.90
2008,06,25,14,54,20.00
2008,06,25,14,55,20.10
2008,06,25,14,56,20.10
2008,06,25,14,57,20.20
2008,06,25,14,58,20.20
2008,06,25,14,59,20.20
2008,06,25,15,00,20.10
2008,06,25,15,01,20.10
2008,06,25,15,02,20.20
2008,06,25,15,03,20.20
2008,06,25,15,04,20.20
2008,06,25,15,05,20.30
2008,06,25,15,06,20.30
2008,06,25,15,07,20.20
2008,06,25,15,08,20.20
2008,06,25,15,09,20.10
2008,06,25,15,10,20.10
2008,06,25,15,11,20.20
2008,06,25,15,12,20.20
2008,06,25,15,13,20.20
2008,06,25,15,14,20.20
2008,06,25,15,15,20.20
2008,06,25,15,16,20.30
2008,06,25,15,17,20.30
2008,06,25,15,18,20.30
2008,06,25,15,19,20.40
2008,06,25,15,20,20.40
2008,06,25,15,21,20.40
2008,06,25,15,22,20.50
2008,06,25,15,23,20.50
2008,06,25,15,24,20.60
2008,06,25,15,25,20.60
2008,06,25,15,26,20.60
2008,06,25,15,27,20.60
2008,06,25,15,28,20.60
2008,06,25,15,29,20.70
2008,06,25,15,30,20.80
2008,06,25,15,31,20.90
2008,06,25,15,32,21.00
2008,06,25,15,33,21.10
2008,06,25,15,34,21.10
2008,06,25,15,35,21.10
2008,06,25,15,36,21.10
2008,06,25,15,37,21.00
2008,06,25,15,38,21.10
2008,06,25,15,39,21.10
2008,06,25,15,40,21.20
2008,06,25,15,41,21.30
2008,06,25,15,42,21.30
2008,06,25,15,43,21.20
2008,06,25,15,44,21.20
2008,06,25,15,45,21.10
2008,06,25,15,46,21.10
2008,06,25,15,47,21.00
2008,06,25,15,48,21.00
2008,06,25,15,49,21.10
2008,06,25,15,50,21.10
2008,06,25,15,51,21.20
2008,06,25,15,52,21.20
2008,06,25,15,53,21.20
2008,06,25,15,54,21.20
2008,06,25,15,55,21.20
2008,06,25,15,56,21.20
2008,06,25,15,57,21.20
2008,06,25,15,58,21.20
2008,06,25,15,59,21.20
2008,06,25,16,00,21.20
2008,06,25,16,01,21.30
2008,06,25,16,02,21.30
2008,06,25,16,03,21.40
2008,06,25,16,04,21.40
2008,06,25,16,05,21.40
2008,06,25,16,06,21.40
2008,06,25,16,07,21.40
2008,06,25,16,08,21.40
2008,06,25,16,09,21.40
2008,06,25,16,10,21.30
2008,06,25,16,11,21.30
2008,06,25,16,12,21.30
2008,06,25,16,13,21.30
2008,06,25,16,14,21.30
2008,06,25,16,15,21.30
2008,06,25,16,16,21.30
2008,06,25,16,17,21.30
2008,06,25,16,18,21.30
2008,06,25,16,19,21.40
2008,06,25,16,20,21.40
2008,06,25,16,21,21.40
2008,06,25,16,22,21.40
2008,06,25,16,23,21.40
2008,06,25,16,24,21.40
2008,06,25,16,25,21.40
2008,06,25,16,26,21.40
2008,06,25,16,27,21.30
2008,06,25,16,28,21.30
2008,06,25,16,29,21.30
2008,06,25,16,30,21.30
2008,06,25,16,31,21.30
2008,06,25,16,32,21.20
2008,06,25,16,33,21.20
2008,06,25,16,34,21.20
2008,06,25,16,35,21.10
2008,06,25,16,36,21.10
2008,06,25,16,37,21.00
2008,06,25,16,38,21.00
2008,06,25,16,39,20.90
2008,06,25,16,40,20.90
2008,06,25,16,41,20.80
2008,06,25,16,42,20.80
2008,06,25,16,43,20.90
2008,06,25,16,44,20.90
2008,06,25,16,45,20.90
2008,06,25,16,46,21.00
2008,06,25,16,47,21.00
2008,06,25,16,48,21.10
2008,06,25,16,49,21.10
2008,06,25,16,50,21.10
2008,06,25,16,51,21.00
2008,06,25,16,52,21.00
2008,06,25,16,53,20.90
2008,06,25,16,54,20.90
2008,06,25,16,55,20.80
2008,06,25,16,56,20.80
2008,06,25,16,57,20.80
2008,06,25,16,58,20.80
2008,06,25,16,59,20.70
2008,06,25,17,00,20.70
2008,06,25,17,01,20.60
2008,06,25,17,02,20.60
2008,06,25,17,03,20.50
2008,06,25,17,04,20.50
2008,06,25,17,05,20.50
2008,06,25,17,06,20.50
2008,06,25,17,07,20.50
2008,06,25,17,08,20.50
2008,06,25,17,09,20.40
2008,06,25,17,10,20.30
2008,06,25,17,11,20.30
2008,06,25,17,12,20.30
2008,06,25,17,13,20.30
2008,06,25,17,14,20.30
2008,06,25,17,15,20.30
2008,06,25,17,16,20.30
2008,06,25,17,17,20.40
2008,06,25,17,18,20.50
2008,06,25,17,19,20.70
2008,06,25,17,20,20.80
2008,06,25,17,21,20.90
2008,06,25,17,22,20.90
2008,06,25,17,23,20.90
2008,06,25,17,24,20.90
2008,06,25,17,25,21.00
2008,06,25,17,26,21.10
2008,06,25,17,27,21.10
2008,06,25,17,28,21.20
2008,06,25,17,29,21.10
2008,06,25,17,30,21.20
2008,06,25,17,31,21.20
2008,06,25,17,32,21.20
2008,06,25,17,33,21.20
2008,06,25,17,34,21.20
2008,06,25,17,35,21.30
2008,06,25,17,36,21.30
2008,06,25,17,37,21.40
2008,06,25,17,38,21.50
2008,06,25,17,39,21.50
2008,06,25,17,40,21.60
2008,06,25,17,41,21.70
2008,06,25,17,42,21.80
2008,06,25,17,43,21.80
2008,06,25,17,44,21.90
2008,06,25,17,45,22.10
2008,06,25,17,46,22.20
2008,06,25,17,47,22.20
2008,06,25,17,48,22.20
2008,06,25,17,49,22.30
2008,06,25,17,50,22.30
2008,06,25,17,51,22.40
2008,06,25,17,52,22.40
2008,06,25,17,53,22.50
2008,06,25,17,54,22.60
2008,06,25,17,55,22.50
2008,06,25,17,56,22.40
2008,06,25,17,57,22.30
2008,06,25,17,58,22.20
2008,06,25,17,59,22.00
2008,06,25,18,00,21.90
2008,06,25,18,01,21.80
2008,06,25,18,02,21.80
2008,06,25,18,03,21.80
2008,06,25,18,04,21.80
2008,06,25,18,05,21.80
2008,06,25,18,06,21.80
2008,06,25,18,07,21.70
2008,06,25,18,08,21.60
2008,06,25,18,09,21.60
2008,06,25,18,10,21.60
2008,06,25,18,11,21.60
2008,06,25,18,12,21.60
2008,06,25,18,13,21.70
2008,06,25,18,14,21.80
2008,06,25,18,15,21.80
2008,06,25,18,16,21.90
2008,06,25,18,17,22.00
2008,06,25,18,18,22.00
2008,06,25,18,19,22.00
2008,06,25,18,20,22.00
2008,06,25,18,21,22.00
2008,06,25,18,22,22.00
2008,06,25,18,23,22.00
2008,06,25,18,24,22.00
2008,06,25,18,25,22.00
2008,06,25,18,26,22.10
2008,06,25,18,27,22.10
2008,06,25,18,28,22.00
2008,06,25,18,29,22.00
2008,06,25,18,30,21.90
2008,06,25,18,31,21.80
2008,06,25,18,32,21.80
2008,06,25,18,33,21.90
2008,06,25,18,34,22.00
2008,06,25,18,35,22.10
2008,06,25,18,36,22.10
2008,06,25,18,37,22.20
2008,06,25,18,38,22.30
2008,06,25,18,39,22.30
2008,06,25,18,40,22.30
2008,06,25,18,41,22.40
2008,06,25,18,42,22.40
2008,06,25,18,43,22.40
2008,06,25,18,44,22.40
2008,06,25,18,45,22.50
2008,06,25,18,46,22.50
2008,06,25,18,47,22.50
2008,06,25,18,48,22.40
2008,06,25,18,49,22.30
2008,06,25,18,50,22.30
2008,06,25,18,51,22.30
2008,06,25,18,52,22.30
2008,06,25,18,53,22.30
2008,06,25,18,54,22.20
2008,06,25,18,55,22.20
2008,06,25,18,56,22.20
2008,06,25,18,57,22.30
2008,06,25,18,58,22.30
2008,06,25,18,59,22.30
2008,06,25,19,00,22.20
2008,06,25,19,01,22.10
2008,06,25,19,02,22.10
2008,06,25,19,03,22.00
2008,06,25,19,04,21.90
2008,06,25,19,05,21.80
2008,06,25,19,06,21.80
2008,06,25,19,07,21.70
2008,06,25,19,08,21.60
2008,06,25,19,09,21.50
2008,06,25,19,10,21.50
2008,06,25,19,11,21.40
2008,06,25,19,12,21.40
2008,06,25,19,13,21.30
2008,06,25,19,14,21.30
2008,06,25,19,15,21.20
2008,06,25,19,16,21.20
2008,06,25,19,17,21.20
2008,06,25,19,18,21.10
2008,06,25,19,19,21.10
2008,06,25,19,20,21.10
2008,06,25,19,21,21.00
2008,06,25,19,22,20.90
2008,06,25,19,23,20.80
2008,06,25,19,24,20.80
2008,06,25,19,25,20.70
2008,06,25,19,26,20.70
2008,06,25,19,27,20.70
2008,06,25,19,28,20.70
2008,06,25,19,29,20.60
2008,06,25,19,30,20.60
2008,06,25,19,31,20.60
2008,06,25,19,32,20.50
2008,06,25,19,33,20.50
2008,06,25,19,34,20.40
2008,06,25,19,35,20.30
2008,06,25,19,36,20.30
2008,06,25,19,37,20.30
2008,06,25,19,38,20.20
2008,06,25,19,39,20.20
2008,06,25,19,40,20.10
2008,06,25,19,41,20.10
2008,06,25,19,42,20.00
2008,06,25,19,43,20.00
2008,06,25,19,44,19.90
2008,06,25,19,45,19.90
2008,06,25,19,46,19.80
2008,06,25,19,47,19.70
2008,06,25,19,48,19.60
2008,06,25,19,49,19.60
2008,06,25,19,50,19.50
2008,06,25,19,51,19.50
2008,06,25,19,52,19.40
2008,06,25,19,53,19.40
2008,06,25,19,54,19.30
2008,06,25,19,55,19.30
2008,06,25,19,56,19.30
2008,06,25,19,57,19.20
2008,06,25,19,58,19.20
2008,06,25,19,59,19.10
2008,06,25,20,00,19.10
2008,06,25,20,01,19.00
2008,06,25,20,02,19.00
2008,06,25,20,03,19.00
2008,06,25,20,04,18.90
2008,06,25,20,05,18.90
2008,06,25,20,06,18.90
2008,06,25,20,07,18.90
2008,06,25,20,08,18.80
2008,06,25,20,09,18.80
2008,06,25,20,10,18.80
2008,06,25,20,11,18.80
2008,06,25,20,12,18.70
2008,06,25,20,13,18.70
2008,06,25,20,14,18.70
2008,06,25,20,15,18.70
2008,06,25,20,16,18.70
2008,06,25,20,17,18.60
2008,06,25,20,18,18.60
2008,06,25,20,19,18.60
2008,06,25,20,20,18.60
2008,06,25,20,21,18.60
2008,06,25,20,22,18.50
2008,06,25,20,23,18.50
2008,06,25,20,24,18.40
2008,06,25,20,25,18.40
2008,06,25,20,26,18.40
2008,06,25,20,27,18.40
2008,06,25,20,28,18.30
2008,06,25,20,29,18.30
2008,06,25,20,30,18.30
2008,06,25,20,31,18.30
2008,06,25,20,32,18.20
2008,06,25,20,33,18.20
2008,06,25,20,34,18.20
2008,06,25,20,35,18.20
2008,06,25,20,36,18.10
2008,06,25,20,37,18.10
2008,06,25,20,38,18.10
2008,06,25,20,39,18.10
2008,06,25,20,40,18.10
2008,06,25,20,41,18.10
2008,06,25,20,42,18.00
2008,06,25,20,43,18.00
2008,06,25,20,44,18.00
2008,06,25,20,45,17.90
2008,06,25,20,46,17.90
2008,06,25,20,47,17.80
2008,06,25,20,48,17.80
2008,06,25,20,49,17.80
2008,06,25,20,50,17.70
2008,06,25,20,51,17.70
2008,06,25,20,52,17.70
2008,06,25,20,53,17.70
2008,06,25,20,54,17.60
2008,06,25,20,55,17.60
2008,06,25,20,56,17.60
2008,06,25,20,57,17.60
2008,06,25,20,58,17.50
2008,06,25,20,59,17.50
2008,06,25,21,00,17.40
2008,06,25,21,01,17.40
2008,06,25,21,02,17.40
2008,06,25,21,03,17.30
2008,06,25,21,04,17.30
2008,06,25,21,05,17.30
2008,06,25,21,06,17.20
2008,06,25,21,07,17.20
2008,06,25,21,08,17.20
2008,06,25,21,09,17.20
2008,06,25,21,10,17.10
2008,06,25,21,11,17.10
2008,06,25,21,12,17.10
2008,06,25,21,13,17.00
2008,06,25,21,14,17.00
2008,06,25,21,15,17.00
2008,06,25,21,16,16.90
2008,06,25,21,17,16.90
2008,06,25,21,18,16.90
2008,06,25,21,19,16.90
2008,06,25,21,20,16.90
2008,06,25,21,21,16.80
2008,06,25,21,22,16.80
2008,06,25,21,23,16.70
2008,06,25,21,24,16.60
2008,06,25,21,25,16.60
2008,06,25,21,26,16.50
2008,06,25,21,27,16.40
2008,06,25,21,28,16.30
2008,06,25,21,29,16.20
2008,06,25,21,30,16.10
2008,06,25,21,31,16.10
2008,06,25,21,32,16.00
2008,06,25,21,33,15.90
2008,06,25,21,34,15.80
2008,06,25,21,35,15.80
2008,06,25,21,36,15.70
2008,06,25,21,37,15.60
2008,06,25,21,38,15.60
2008,06,25,21,39,15.50
2008,06,25,21,40,15.40
2008,06,25,21,41,15.40
2008,06,25,21,42,15.30
2008,06,25,21,43,15.30
2008,06,25,21,44,15.20
2008,06,25,21,45,15.10
2008,06,25,21,46,15.00
2008,06,25,21,47,15.00
2008,06,25,21,48,15.00
2008,06,25,21,49,15.00
2008,06,25,21,50,15.00
2008,06,25,21,51,15.00
2008,06,25,21,52,14.90
2008,06,25,21,53,14.80
2008,06,25,21,54,14.80
2008,06,25,21,55,14.80
2008,06,25,21,56,14.70
2008,06,25,21,57,14.70
2008,06,25,21,58,14.70
2008,06,25,21,59,14.70
2008,06,25,22,00,14.60
2008,06,25,22,01,14.60
2008,06,25,22,02,14.60
2008,06,25,22,03,14.50
2008,06,25,22,04,14.50
2008,06,25,22,05,14.40
2008,06,25,22,06,14.40
2008,06,25,22,07,14.40
2008,06,25,22,08,14.40
2008,06,25,22,09,14.30
2008,06,25,22,10,14.30
2008,06,25,22,11,14.30
2008,06,25,22,12,14.30
2008,06,25,22,13,14.30
2008,06,25,22,14,14.20
2008,06,25,22,15,14.20
2008,06,25,22,16,14.20
2008,06,25,22,17,14.20
2008,06,25,22,18,14.10
2008,06,25,22,19,14.10
2008,06,25,22,20,14.10
2008,06,25,22,21,14.00
2008,06,25,22,22,14.00
2008,06,25,22,23,14.00
2008,06,25,22,24,13.90
2008,06,25,22,25,13.90
2008,06,25,22,26,13.90
2008,06,25,22,27,13.90
2008,06,25,22,28,13.80
2008,06,25,22,29,13.80
2008,06,25,22,30,13.80
2008,06,25,22,31,13.80
2008,06,25,22,32,13.80
2008,06,25,22,33,13.80
2008,06,25,22,34,13.70
2008,06,25,22,35,13.70
2008,06,25,22,36,13.70
2008,06,25,22,37,13.70
2008,06,25,22,38,13.70
2008,06,25,22,39,13.70
2008,06,25,22,40,13.70
2008,06,25,22,41,13.80
2008,06,25,22,42,13.80
2008,06,25,22,43,13.80
2008,06,25,22,44,13.80
2008,06,25,22,45,13.90
2008,06,25,22,46,13.90
2008,06,25,22,47,13.90
2008,06,25,22,48,13.90
2008,06,25,22,49,14.00
2008,06,25,22,50,14.10
2008,06,25,22,51,14.10
2008,06,25,22,52,14.10
2008,06,25,22,53,14.10
2008,06,25,22,54,14.10
2008,06,25,22,55,14.10
2008,06,25,22,56,14.10
2008,06,25,22,57,14.10
2008,06,25,22,58,14.10
2008,06,25,22,59,14.00
2008,06,25,23,00,14.00
2008,06,25,23,01,14.00
2008,06,25,23,02,13.90
2008,06,25,23,03,13.90
2008,06,25,23,04,13.90
2008,06,25,23,05,13.80
2008,06,25,23,06,13.80
2008,06,25,23,07,13.80
2008,06,25,23,08,13.70
2008,06,25,23,09,13.70
2008,06,25,23,10,13.60
2008,06,25,23,11,13.60
2008,06,25,23,12,13.50
2008,06,25,23,13,13.50
2008,06,25,23,14,13.50
2008,06,25,23,15,13.40
2008,06,25,23,16,13.40
2008,06,25,23,17,13.40
2008,06,25,23,18,13.30
2008,06,25,23,19,13.30
2008,06,25,23,20,13.20
2008,06,25,23,21,13.20
2008,06,25,23,22,13.20
2008,06,25,23,23,13.10
2008,06,25,23,24,13.10
2008,06,25,23,25,13.00
2008,06,25,23,26,13.00
2008,06,25,23,27,12.90
2008,06,25,23,28,12.90
2008,06,25,23,29,12.90
2008,06,25,23,30,12.80
2008,06,25,23,31,12.80
2008,06,25,23,32,12.80
2008,06,25,23,33,12.80
2008,06,25,23,34,12.70
2008,06,25,23,35,12.70
2008,06,25,23,36,12.70
2008,06,25,23,37,12.70
2008,06,25,23,38,12.70
2008,06,25,23,39,12.70
2008,06,25,23,40,12.70
2008,06,25,23,41,12.70
2008,06,25,23,42,12.70
2008,06,25,23,43,12.60
2008,06,25,23,44,12.60
2008,06,25,23,45,12.60
2008,06,25,23,46,12.60
2008,06,25,23,47,12.50
2008,06,25,23,48,12.50
2008,06,25,23,49,12.40
2008,06,25,23,50,12.40
2008,06,25,23,51,12.40
2008,06,25,23,52,12.40
2008,06,25,23,53,12.30
2008,06,25,23,54,12.30
2008,06,25,23,55,12.30
2008,06,25,23,56,12.30
2008,06,25,23,57,12.30
2008,06,25,23,58,12.20
2008,06,25,23,59,12.20
